SAUDICOMSAT 6

Satellite information

Favourite Embed

Satellite Type and Status

PAYLOADIN ORBIT

Key statistics

Satellite SAUDICOMSAT 6 at a glance.

Uptime

6816

Days in orbit

Revolutions

≈ 14.6

Per day

Orbit

SSO

Sun Synchronous Orbit

Inclination

98.4

Latest

Satellite identification and parameters

Extended collection of information and parameters for SAUDICOMSAT 6.

Object identification

Identified? True

Debris? False

Object name: SAUDICOMSAT 6

International designator: 2007-012E

Object number (NORAD): 31121

Object ID (CCSDS): 31121

Country: SAUDI ARABIA (SAUD)

Current information (Y/N): Y

RCS size: SMALL

Orbital parameters

Period: 98.478 minutes

Inclination: 98.3847 deg

SMA: 7064.061 km

Apoapsis: 736.674 km

Periapsis: 635.178 km

RAAN: 304.9744 deg

Eccentricy: 0.00718392

Argument of periapsis: 189.8719 deg

Mean anomaly: 170.1075 deg

Mean motion: 14.62248234 rev/day

Mean motion (dot): 0.00001009 rev/day2

B* drag term: 0.00020310593 1/REarth

Two-line elements (TLE)

Creation date: Dec. 11, 2025, 7:14 p.m.

Reference frame: TEME

Reference center: EARTH

Epoch: Dec. 11, 2025, 2:50 p.m. UTC

TLE line 0: 0 SAUDICOMSAT 6

TLE line 1: 1 31121U 07012E 25345.61870270 .00001009 00000-0 20311-3 0 9998

TLE line 2: 2 31121 98.3847 304.9744 0071839 189.8719 170.1075 14.62248234992761

Live tracking on map

Real-time ground track for satellite SAUDICOMSAT 6.

In-orbit conjunctions

There are no conjunctions computed for SAUDICOMSAT 6, at the moment. Check back to stay up to date, as we update our databases every day.

Go to all conjunctions

Associated space launch

Rideshare mission with Egyptian and Saudi Arabian Earth observation satellites as well as 14 American cubesats

SAUDICOMSAT 6 was lifted into orbit during the mission ‘Dnepr | EgyptSat 1 & Saudisat 3’, on board a Dnepr space rocket.

The launch took place on April 17, 2007, 6:46 a.m. from 109/95.

For more information about the launch, click the button.

Launch to space Dnepr | EgyptSat 1 & Saudisat 3
Dnepr | EgyptSat 1 & Saudisat 3

Agency: N/A

Status: Launch Successful

Launch date: April 17, 2007, 6:46 a.m. UTC

Rocket: Dnepr

Launch pad: 109/95

Location: Baikonur Cosmodrome, Republic of Kazakhstan

...

Latest news about this satellite

There are no fresh news available about this satellite. Check back as we update our databases every day.


Newsletter sign-up

Weekly statistics, charts and insights to help you stay on top of the space industry.